Hourly Data Report for December 12, 2020

FORT GOOD HOPE CS
NORTHWEST TERRITORIES
Current Station Operator: ECCC - MSC

66°14'32.044" N
128°38'39.081" W
81.70 m
2201450
71491
ZGH

Download Data

Hourly Data (December 2020)
Hourly Data Report for December 12, 2020
TIME
LST
Temp Definition
°C
Dew Point Definition
°C
Rel Hum Definition
%
Precip. Amount Definition
mm

Wind Dir Definition
10's deg

Wind Spd Definition
km/h
Visibility Definition
km
Stn Press Definition
kPa
Hmdx Definition


Wind Chill Definition


Weather Definition


00:00 -31.5 -34.7 74 0.0 3 5   103.01   -37 LegendNANA
01:00 -32.1 -35.4 72 0.0 3 4   103.05   -37 LegendNANA
02:00 -33.2 -36.4 73 0.0 7 5   103.08   -39 LegendNANA
03:00 -32.7 -36.1 72 0.0 9 4   103.08   -37 LegendNANA
04:00 -33.6 -37.0 71 0.0 6 4   103.11   -38 LegendNANA
05:00 -33.7 -37.2 71 0.0 9 6   103.07   -41 LegendNANA
06:00 -34.6 -38.0 71 0.0 12 2   103.05   -37 LegendNANA
07:00 -35.2 -38.7 70 0.0 10 5   103.08   -42 LegendNANA
08:00 -35.1 -38.6 70 0.0 8 5   103.07   -41 LegendNANA
09:00 -35.4 -39.0 70 0.0 10 4   103.06   -40 LegendNANA
10:00 -35.7 -39.3 70 0.0 11 4   103.03   -41 LegendNANA
11:00 -35.4 -39.0 70 0.0 9 6   103.01   -43 LegendNANA
12:00 -35.9 -39.5 70 0.0 10 5   102.99   -42 LegendNANA
13:00 -35.8 -39.4 69 0.0 12 4   102.97   -41 LegendNANA
14:00 -35.2 -38.8 70 0.0 13 3   102.94   -39 LegendNANA
15:00 -35.5 -39.1 69 0.0 10 5   102.92   -42 LegendNANA
16:00 -35.2 -38.8 70 0.0 9 5   102.87   -42 LegendNANA
17:00 -35.2 -38.8 70 0.0 8 4   102.80   -40 LegendNANA
18:00 -35.6 -39.1 70 0.0 12 4   102.75   -41 LegendNANA
19:00 -34.8 -38.3 70 0.0 11 5   102.70   -41 LegendNANA
20:00 -34.8 -38.3 71 0.0 10 3   102.66   -39 LegendNANA
21:00 -34.5 -38.0 71 0.0 8 5   102.60   -41 LegendNANA
22:00 -34.0 -37.4 71 0.0 13 3   102.56   -38 LegendNANA
23:00 -34.5 -38.0 71 0.0 11 3   102.50   -38 LegendNANA

Notes on Data Quality.

Legend

  • E = Estimated
  • M = Missing
  • NA = Not Available*
  • [empty] = Indicates an unobserved value
Date modified: